[[{"header":{"parameterUnit":"m.s-1","parameterCategory":1,"la1":30.2991,"la2":30.254,"lo1":-89.0895,"lo2":-89.0444,"dy":0.0017,"dx":0.0017,"nx":28,"ny":28,"refTime":"2026-03-03T09:00:00:Z","depth":0,"parameterNumber":2,"parameterNumberName":"U-component_of_WINDS"},"data":[0,0,0,0,0,0,0,0,0,0,0,0,0,0,0,0,0,0,0,0,0,0,0,0,0,0,0,0,0,0,0,0,0,0,0,0,0,0,0,0,0,0,0,0,0,0,0,0,0,0,0,0,0,0,0,0,0,0,-2.8507,-2.8506,0,-2.8431,-2.843,-2.8429,-2.8376,-2.8376,-2.8376,-2.8375,-2.8296,-2.8294,-2.8293,0,0,0,0,0,0,0,0,0,0,0,0,0,-2.8607,-2.8605,-2.8507,-2.8506,-2.8505,-2.8431,-2.843,-2.8429,-2.8376,-2.8376,-2.8375,-2.8375,-2.8297,-2.8295,-2.8292,0,0,0,0,0,0,0,0,0,0,0,0,0,-2.855,-2.8605,-2.8508,-2.847,-2.8466,-2.8432,-2.843,-2.8429,-2.8377,-2.8376,-2.8375,-2.8375,-2.8297,-2.8295,-2.8292,-2.8288,0,0,-2.8284,-2.8283,0,0,0,0,0,0,0,0,-2.8554,-2.8547,-2.8477,-2.8473,-2.8468,-2.8413,-2.8436,-2.8382,-2.8377,-2.8411,-2.8375,-2.8374,-2.8335,-2.8329,-2.8316,-2.8285,-2.8281,-2.8284,-2.8282,-2.8281,-2.8281,0,0,0,0,0,0,0,-2.8558,-2.855,-2.8477,-2.8476,-2.847,-2.8457,-2.8448,-2.8426,-2.8377,-2.8407,-2.8403,-2.8395,-2.8333,-2.8319,-2.8314,-2.828,-2.8284,-2.8282,-2.828,-2.8279,-2.8242,-2.8243,0,0,0,0,0,0,-2.8567,-2.8553,-2.848,-2.8475,-2.851,-2.8456,-2.8446,-2.8431,-2.8377,-2.8368,-2.8396,-2.8393,-2.8324,-2.8317,-2.8311,-2.8304,-2.8281,-2.8279,-2.8277,-2.8242,-2.8243,-2.8243,0,0,0,0,0,0,-2.857,-2.8561,-2.8483,-2.8513,-2.8502,-2.8455,-2.8438,-2.843,-2.8416,-2.8368,-2.8359,-2.8391,-2.8323,-2.8315,-2.8295,-2.83,-2.8278,-2.8275,-2.8241,-2.8242,-2.8243,-2.8288,0,0,0,0,0,0,-2.8573,-2.8563,-2.856,-2.8513,-2.8501,-2.8468,-2.8439,-2.8429,-2.8412,-2.8408,-2.8361,-2.8353,-2.8322,-2.8299,-2.8292,-2.8296,-2.8273,-2.824,-2.8242,-2.8243,-2.8286,-2.8291,-2.8295,0,0,0,0,0,-2.8577,-2.8576,-2.8561,-2.8552,-2.8497,-2.8468,-2.8461,-2.8425,-2.8413,-2.841,-2.838,-2.8355,-2.8301,-2.8297,-2.8289,-2.8293,-2.824,-2.8241,-2.8243,-2.8284,-2.829,-2.8295,0,0,0,0,0,0,-2.8623,-2.8569,-2.8551,-2.8535,-2.8507,-2.8459,-2.8455,-2.8432,-2.8406,-2.8403,-2.836,-2.835,-2.8334,-2.8311,-2.8308,-2.8287,-2.8267,-2.8267,-2.8302,-2.8307,-2.8311,-2.8316,-2.8271,0,0,0,0,0,-2.8632,-2.8613,-2.8566,-2.8557,-2.8544,-2.8502,-2.8488,-2.8463,-2.8432,-2.8419,-2.8387,-2.8357,-2.8334,-2.8319,-2.8295,-2.8283,-2.8273,-2.8282,-2.8286,-2.829,-2.829,-2.8283,-2.8286,-2.8248,-2.8248,-2.8247,0,0,-2.8649,-2.8617,-2.8608,-2.8566,-2.854,-2.8522,-2.8492,-2.8473,-2.8459,-2.8416,-2.8395,-2.8371,-2.8335,-2.832,-2.8311,-2.83,-2.8298,-2.8291,-2.8295,-2.8292,-2.8284,-2.8288,-2.8292,-2.8248,-2.8248,-2.8248,0,0,-2.8671,-2.8645,-2.8635,-2.8611,-2.8574,-2.8546,-2.8544,-2.85,-2.8483,-2.8462,-2.8429,-2.8412,-2.8372,-2.8348,-2.8331,-2.8346,-2.8322,-2.834,-2.8361,-2.8355,-2.8358,-2.8361,-2.8367,-2.8369,-2.834,-2.834,-2.834,0,-2.8697,-2.8668,-2.8632,-2.8616,-2.8598,-2.856,-2.8549,-2.8528,-2.8485,-2.8473,-2.8462,-2.8412,-2.8385,-2.8364,-2.8368,-2.8355,-2.8352,-2.8344,-2.8361,-2.8363,-2.8365,-2.837,-2.8372,-2.8343,-2.8342,-2.8342,-2.8342,0,-2.8702,-2.8683,-2.8679,-2.8639,-2.8622,-2.8608,-2.857,-2.8557,-2.8534,-2.8508,-2.8488,-2.8455,-2.8423,-2.8417,-2.8394,-2.8393,-2.8387,-2.8369,-2.8349,-2.8372,-2.8376,-2.8377,-2.8346,-2.8345,-2.8344,-2.8344,0,0,-2.8749,-2.8692,-2.8691,-2.8673,-2.8631,-2.8615,-2.86,-2.8571,-2.856,-2.8532,-2.8519,-2.8488,-2.8471,-2.8452,-2.8426,-2.8421,-2.8436,-2.8403,-2.8402,-2.8411,-2.8433,-2.8447,-2.845,-2.8421,-2.8421,-2.8421,-2.8436,0,-2.8765,-2.8737,-2.8705,-2.8688,-2.867,-2.8635,-2.8622,-2.8595,-2.8571,-2.8552,-2.8525,-2.8504,-2.8483,-2.8471,-2.8465,-2.8436,-2.844,-2.8434,-2.8408,-2.8407,-2.8418,-2.8452,-2.8466,-2.8482,-2.8438,-2.8438,-2.8438,0,-2.8778,-2.8754,-2.8735,-2.8696,-2.8687,-2.8677,-2.8648,-2.863,-2.8599,-2.8582,-2.8562,-2.8535,-2.8518,-2.8501,-2.8478,-2.8475,-2.8462,-2.8447,-2.8447,-2.8442,-2.8424,-2.8449,-2.8486,-2.8489,-2.844,-2.844,-2.844,0,-2.8815,-2.8777,-2.8762,-2.8748,-2.8701,-2.8695,-2.8675,-2.8643,-2.8628,-2.8603,-2.8593,-2.8566,-2.8551,-2.8531,-2.8498,-2.8489,-2.8479,-2.8459,-2.8464,-2.8465,-2.8463,-2.8464,-2.8499,-2.8456,-2.8456,-2.8456,-2.8456,0,-2.8835,-2.8825,-2.8778,-2.8768,-2.8757,-2.872,-2.871,-2.8687,-2.8659,-2.8645,-2.8613,-2.86,-2.8557,-2.854,-2.8514,-2.8499,-2.8493,-2.8479,-2.8472,-2.8481,-2.8483,-2.8472,-2.847,-2.8456,-2.8456,-2.8456,-2.8456,0,-2.8874,-2.8841,-2.8822,-2.8781,-2.877,-2.8763,-2.8728,-2.8717,-2.8692,-2.8675,-2.8668,-2.8629,-2.8607,-2.8572,-2.8539,-2.8522,-2.8512,-2.8501,-2.8523,-2.8518,-2.8526,-2.8526,-2.8556,-2.8558,-2.8514,-2.8514,-2.8515,0,-2.8888,-2.888,-2.8839,-2.8827,-2.8809,-2.879,-2.8775,-2.874,-2.8725,-2.869,-2.8684,-2.866,-2.8638,-2.8604,-2.8573,-2.8548,-2.8536,-2.8548,-2.8532,-2.8542,-2.8536,-2.8537,-2.8537,-2.8552,-2.8552,-2.8553,-2.8553,0,-2.8918,-2.8903,-2.8883,-2.8857,-2.884,-2.8818,-2.8795,-2.8787,-2.8747,-2.8732,-2.8709,-2.8693,-2.866,-2.8637,-2.8608,-2.8587,-2.8564,-2.8559,-2.8559,-2.8568,-2.8582,-2.8575,-2.8533,-2.8558,-2.8558,-2.8557,-2.8557,-2.8557,-2.8945,-2.8937,-2.8907,-2.8885,-2.8864,-2.8844,-2.8832,-2.8807,-2.8787,-2.8758,-2.8739,-2.8718,-2.8688,-2.8647,-2.8629,-2.8612,-2.8601,-2.8601,-2.8601,-2.8602,-2.8605,-2.8585,-2.8606,-2.8606,-2.8606,-2.8606,-2.8606,0,-2.8973,-2.8953,-2.8934,-2.8903,-2.8886,-2.8867,-2.884,-2.8828,-2.881,-2.8784,-2.8764,-2.8739,-2.8717,-2.8684,-2.8659,-2.8652,-2.8641,-2.8647,-2.8647,-2.8643,-2.8616,-2.8618,-2.8656,-2.8656,-2.8656,-2.8656,-2.8656,-2.8656,-2.8986,-2.8971,-2.8953,-2.8928,-2.8907,-2.8887,-2.8874,-2.8855,-2.8834,-2.8808,-2.8789,-2.8769,-2.8741,-2.8714,-2.8693,-2.8684,-2.8676,-2.8686,-2.8673,-2.8649,-2.8644,-2.864,-2.8642,-2.8684,-2.8684,-2.8701,-2.8702,-2.8702]},{"header":{"parameterUnit":"m.s-1","parameterCategory":1,"la1":30.2991,"la2":30.254,"lo1":-89.0895,"lo2":-89.0444,"dy":0.0017,"dx":0.0017,"nx":28,"ny":28,"refTime":"2026-03-03T09:00:00:Z","depth":0,"parameterNumber":3,"parameterNumberName":"V-component_of_WINDS"},"data":[0,0,0,0,0,0,0,0,0,0,0,0,0,0,0,0,0,0,0,0,0,0,0,0,0,0,0,0,0,0,0,0,0,0,0,0,0,0,0,0,0,0,0,0,0,0,0,0,0,0,0,0,0,0,0,0,0,0,1.2344,1.2344,0,1.2346,1.2346,1.2347,1.2387,1.2388,1.2389,1.239,1.2389,1.2388,1.2387,0,0,0,0,0,0,0,0,0,0,0,0,0,1.2374,1.2373,1.2344,1.2344,1.2345,1.2346,1.2346,1.2347,1.2386,1.2388,1.2389,1.239,1.2389,1.2388,1.2387,0,0,0,0,0,0,0,0,0,0,0,0,0,1.2367,1.2373,1.2344,1.2365,1.2367,1.2346,1.2346,1.2347,1.2386,1.2388,1.2389,1.2391,1.2389,1.2388,1.2387,1.2346,0,0,1.2382,1.2381,0,0,0,0,0,0,0,0,1.2367,1.2366,1.2362,1.2363,1.2365,1.2368,1.2357,1.2346,1.2386,1.2379,1.239,1.2391,1.238,1.238,1.2377,1.2346,1.2346,1.2382,1.2381,1.238,1.238,0,0,0,0,0,0,0,1.2368,1.2366,1.2345,1.2362,1.2364,1.2373,1.2374,1.2355,1.2371,1.2379,1.2382,1.2382,1.2382,1.2378,1.2377,1.2346,1.2382,1.2381,1.238,1.2379,1.2286,1.2284,0,0,0,0,0,0,1.2366,1.2366,1.2345,1.2345,1.237,1.2371,1.2372,1.2365,1.2371,1.2373,1.2381,1.2384,1.238,1.2379,1.2377,1.2332,1.238,1.2379,1.2378,1.2287,1.2285,1.2284,0,0,0,0,0,0,1.2366,1.2363,1.2345,1.2356,1.2355,1.2369,1.2361,1.2365,1.2361,1.2372,1.2375,1.2374,1.2381,1.2379,1.2354,1.2333,1.2378,1.2377,1.2289,1.2287,1.2284,1.2241,0,0,0,0,0,0,1.2367,1.2363,1.2348,1.2356,1.2354,1.2323,1.236,1.2364,1.2359,1.2363,1.2367,1.2369,1.2382,1.2356,1.2353,1.2331,1.2376,1.2291,1.2288,1.2285,1.2244,1.2237,1.2231,0,0,0,0,0,1.2368,1.2335,1.2347,1.2345,1.2336,1.2321,1.232,1.2337,1.2357,1.2342,1.2349,1.2369,1.2335,1.2354,1.235,1.2328,1.2293,1.2289,1.2285,1.2247,1.2239,1.2231,0,0,0,0,0,0,1.2322,1.2336,1.235,1.2319,1.2319,1.2328,1.231,1.2327,1.232,1.2324,1.2345,1.2345,1.2318,1.232,1.234,1.229,1.2318,1.2313,1.229,1.2282,1.2275,1.2276,1.2375,0,0,0,0,0,1.2309,1.2297,1.2309,1.228,1.228,1.2295,1.2289,1.2302,1.2302,1.2302,1.2308,1.2307,1.2297,1.2289,1.228,1.2245,1.2247,1.2228,1.2221,1.2216,1.2212,1.2196,1.2188,1.2272,1.2272,1.2272,0,0,1.2281,1.2287,1.2278,1.2271,1.2273,1.226,1.2294,1.2278,1.2269,1.2299,1.2278,1.2281,1.2282,1.2252,1.224,1.2254,1.2189,1.2211,1.2207,1.2206,1.2191,1.2183,1.2176,1.2269,1.227,1.227,0,0,1.2223,1.2226,1.2204,1.2205,1.2208,1.2218,1.2213,1.222,1.2224,1.2203,1.2226,1.2215,1.2196,1.2196,1.2194,1.2138,1.2157,1.2135,1.2101,1.2085,1.2078,1.2072,1.2054,1.2047,1.2131,1.2131,1.213,0,1.2188,1.217,1.2189,1.2173,1.217,1.2199,1.2177,1.2177,1.2175,1.2173,1.2189,1.2168,1.2169,1.2142,1.2128,1.2125,1.212,1.2135,1.2078,1.2072,1.2067,1.205,1.2043,1.2128,1.2128,1.2129,1.2129,0,1.2127,1.2114,1.2095,1.2096,1.2091,1.2071,1.2088,1.208,1.2094,1.2103,1.2082,1.2085,1.2079,1.2073,1.2085,1.2047,1.2056,1.2074,1.2102,1.2056,1.2041,1.2034,1.2124,1.2125,1.2126,1.2127,0,0,1.204,1.2053,1.2046,1.2048,1.2054,1.2044,1.2026,1.2021,1.2015,1.2013,1.2,1.1984,1.2002,1.1999,1.2012,1.1998,1.1956,1.2018,1.2019,1.2008,1.1916,1.1903,1.1895,1.1968,1.1967,1.1966,1.1917,0,1.1986,1.1957,1.1975,1.1944,1.1933,1.1961,1.1946,1.1948,1.1956,1.1948,1.1957,1.1946,1.197,1.1968,1.1955,1.1964,1.1938,1.1967,1.1956,1.1955,1.1956,1.1887,1.1873,1.1827,1.1911,1.191,1.1909,0,1.1918,1.1916,1.1885,1.1895,1.1891,1.1877,1.1875,1.1867,1.187,1.1877,1.1875,1.1892,1.1876,1.1903,1.1881,1.1901,1.1897,1.1901,1.1899,1.19,1.193,1.1887,1.1812,1.1805,1.1899,1.19,1.1901,0,1.186,1.1849,1.183,1.183,1.1841,1.1831,1.1835,1.184,1.1836,1.1834,1.1832,1.1827,1.1825,1.1821,1.1837,1.1855,1.1813,1.1841,1.1819,1.1819,1.181,1.181,1.1735,1.1805,1.1805,1.1805,1.1805,0,1.1799,1.1778,1.1804,1.1792,1.1771,1.1792,1.177,1.1777,1.1781,1.1771,1.1794,1.1784,1.1805,1.1796,1.1808,1.179,1.1788,1.1793,1.1797,1.1792,1.1792,1.1791,1.1795,1.1803,1.1804,1.1804,1.1805,0,1.1731,1.1747,1.1728,1.1741,1.1744,1.1727,1.1738,1.1728,1.1738,1.1725,1.1723,1.1739,1.1731,1.1746,1.1739,1.1747,1.1722,1.1729,1.1721,1.1724,1.1701,1.1704,1.1623,1.1615,1.1689,1.1689,1.1688,0,1.1691,1.1676,1.1689,1.1684,1.1688,1.168,1.1677,1.1697,1.1693,1.1697,1.1686,1.1681,1.1677,1.1663,1.1674,1.1669,1.1678,1.165,1.1677,1.1674,1.168,1.1681,1.168,1.1645,1.1644,1.1643,1.1642,0,1.1619,1.1629,1.1624,1.1623,1.162,1.162,1.1621,1.1616,1.1638,1.1632,1.1625,1.1623,1.1617,1.1612,1.161,1.1614,1.1632,1.1634,1.1629,1.1624,1.1621,1.1624,1.1707,1.1636,1.1636,1.1637,1.1637,1.1638,1.1565,1.1555,1.1562,1.1557,1.1561,1.1562,1.1554,1.1564,1.1559,1.1557,1.1569,1.156,1.1565,1.1565,1.1567,1.156,1.1573,1.1565,1.1563,1.1561,1.1558,1.1621,1.156,1.156,1.156,1.156,1.156,0,1.1496,1.1503,1.1498,1.1501,1.1497,1.1516,1.1519,1.1515,1.1507,1.151,1.1507,1.15,1.1495,1.1506,1.1503,1.1495,1.1504,1.1494,1.1495,1.1496,1.1547,1.1552,1.1487,1.1487,1.1487,1.1487,1.1487,1.1488,1.146,1.1444,1.1455,1.1441,1.1448,1.144,1.144,1.1442,1.1445,1.1437,1.1434,1.1441,1.1448,1.1446,1.1443,1.1446,1.1444,1.1432,1.1438,1.1485,1.1492,1.1499,1.1505,1.1431,1.1431,1.1389,1.1389,1.1388]}]]